Total_Precipitation_Accumulation
0.39 0.36 0.44 0.41 0.40 0.39 0.41 0.49 0.60 0.70 0.70 0.69 0.66 0.69 0.73 0.75 0.84 0.92 0.93 0.93 1.03 1.24 1.49 1.86 2.24 2.43 2.55 2.68 2.69 2.67 2.73 2.66 2.53 2.43 2.44 2.47 2.55 2.56 2.58 2.56 2.56 2.38 2.16
0.32 0.31 0.37 0.39 0.39 0.42 0.44 0.50 0.61 0.71 0.69 0.73 0.73 0.73 0.80 0.87 0.86 0.84 0.88 0.92 1.09 1.30 1.44 1.61 1.84 2.13 2.23 2.29 2.28 2.47 2.64 2.48 2.65 2.97 3.14 2.94 2.81 2.68 2.85 2.73 2.72 2.76 2.27
0.29 0.33 0.32 0.47 0.46 0.45 0.46 0.51 0.58 0.69 0.71 0.80 0.82 0.81 0.85 0.90 0.86 0.82 0.89 1.00 1.24 1.50 1.60 1.65 1.77 2.02 2.19 2.16 2.24 2.43 2.67 2.70 2.85 3.33 3.73 3.21 3.04 2.93 2.73 2.54 2.43 2.34 2.07
0.48 0.46 0.39 0.50 0.53 0.46 0.47 0.55 0.64 0.74 0.78 0.92 0.91 0.78 0.82 0.86 0.87 0.86 0.90 1.00 1.26 1.58 1.77 1.76 1.76 1.88 1.88 1.89 2.08 2.37 2.60 2.72 3.02 3.36 3.63 3.48 3.40 3.44 3.05 2.66 2.45 2.31 2.06
0.65 0.57 0.52 0.59 0.62 0.59 0.58 0.61 0.67 0.77 0.85 0.94 0.84 0.85 0.91 0.91 0.89 0.92 0.93 1.00 1.20 1.60 1.82 1.74 1.67 1.61 1.60 1.67 1.86 2.12 2.47 2.79 3.12 3.28 3.68 4.05 4.18 3.99 3.21 2.67 2.52 2.50 2.23
0.60 0.54 0.51 0.57 0.59 0.63 0.60 0.60 0.72 0.76 0.85 0.94 0.97 0.98 0.99 1.02 1.03 1.00 1.02 1.13 1.23 1.52 1.78 1.72 1.66 1.58 1.55 1.61 1.73 1.91 2.19 2.71 2.99 3.06 3.77 3.99 3.78 3.93 3.41 2.92 2.69 2.50 2.21
0.60 0.55 0.50 0.53 0.58 0.61 0.65 0.67 0.83 0.89 0.96 1.08 1.12 1.06 1.04 1.09 1.12 1.07 1.10 1.19 1.33 1.46 1.64 1.64 1.59 1.55 1.45 1.54 1.61 1.75 1.90 2.37 2.59 3.31 3.51 3.52 3.63 3.94 3.72 3.29 2.98 2.62 2.29
0.73 0.67 0.59 0.56 0.69 0.80 0.82 0.82 0.94 0.95 1.05 1.12 1.19 1.17 1.09 1.06 1.03 1.02 1.11 1.17 1.30 1.47 1.52 1.39 1.35 1.36 1.40 1.50 1.60 1.73 1.86 1.92 2.07 2.70 3.05 3.11 3.17 3.62 3.85 3.40 2.97 2.71 2.48
0.82 0.69 0.63 0.60 0.78 1.02 1.06 0.98 0.97 0.96 1.07 1.18 1.30 1.33 1.21 1.09 1.02 1.06 1.12 1.17 1.27 1.34 1.26 1.18 1.17 1.18 1.26 1.41 1.64 1.62 1.76 2.00 2.05 2.52 2.68 2.87 2.77 3.26 3.77 3.55 2.96 2.68 2.61
1.08 0.90 0.82 0.83 0.92 1.04 1.06 1.09 1.06 1.05 1.18 1.28 1.34 1.38 1.34 1.24 1.17 1.20 1.15 1.24 1.29 1.34 1.29 1.25 1.22 1.20 1.21 1.28 1.53 1.71 1.84 1.93 1.92 2.25 3.03 2.93 2.68 3.43 3.84 3.64 3.20 2.89 2.73
1.26 1.33 1.26 1.19 1.18 1.18 1.16 1.16 1.26 1.27 1.33 1.35 1.40 1.38 1.34 1.35 1.43 1.43 1.28 1.37 1.43 1.53 1.57 1.48 1.42 1.38 1.32 1.33 1.50 1.68 1.79 1.58 1.88 2.52 3.16 3.05 3.00 3.65 3.89 3.69 3.43 3.18 2.95
1.54 1.65 1.67 1.67 1.64 1.59 1.51 1.70 1.78 1.56 1.49 1.46 1.60 1.44 1.42 1.73 1.82 1.62 1.74 1.84 1.94 1.95 1.87 1.75 1.62 1.54 1.42 1.35 1.50 1.61 1.48 1.58 2.14 2.76 2.90 2.77 3.26 3.89 4.09 3.79 3.55 3.45 3.28
1.95 1.73 1.68 1.95 2.06 2.13 2.27 2.16 2.15 2.11 2.06 1.98 2.09 1.95 1.96 2.14 2.07 2.10 2.19 2.10 2.04 2.06 2.01 2.09 1.86 1.49 1.38 1.56 1.68 1.65 1.67 1.75 2.14 2.63 2.83 2.86 3.45 4.07 4.34 4.15 3.79 3.66 3.66
2.32 2.12 1.91 1.97 2.04 2.22 2.44 2.45 2.41 2.31 2.24 2.19 2.30 2.13 2.30 2.49 2.58 2.59 2.67 2.46 2.39 2.35 2.48 2.48 2.31 1.96 1.72 1.71 1.68 1.74 1.88 1.92 2.12 2.52 2.74 2.58 3.04 3.78 4.34 4.41 4.14 3.95 3.88
2.71 2.57 2.40 2.17 2.11 2.29 2.62 2.78 2.75 2.79 2.63 2.68 2.80 2.60 2.57 2.65 2.71 3.02 3.04 3.26 2.87 2.79 2.94 2.91 2.65 2.51 2.26 2.08 1.98 1.96 2.09 2.10 2.14 2.39 2.54 2.50 2.80 3.40 4.02 4.35 4.40 4.32 4.23
3.35 3.01 2.74 2.58 2.43 2.42 2.56 2.90 3.03 2.88 2.92 2.96 3.09 3.00 2.95 2.99 3.10 3.43 3.58 3.67 3.41 3.44 3.66 3.68 3.41 3.16 2.88 2.80 2.55 2.51 2.45 2.47 2.69 2.70 2.67 2.61 2.63 2.89 3.58 4.13 4.46 4.65 4.62
3.60 3.43 3.15 3.02 3.03 2.81 2.75 3.05 3.17 3.09 3.04 3.11 3.32 3.39 3.26 3.35 3.67 3.78 4.13 4.12 3.90 3.88 3.93 3.91 4.11 4.03 3.50 3.19 3.10 3.05 2.94 2.80 2.99 3.11 3.20 3.07 2.84 2.87 3.14 3.69 4.05 4.27 4.44
3.83 3.62 3.46 3.06 3.06 3.26 3.27 3.56 3.51 3.58 3.74 3.70 3.75 3.92 3.86 3.90 4.01 4.06 4.11 4.21 4.13 4.10 4.41 4.60 4.51 4.42 4.18 3.83 3.71 3.45 3.23 3.21 3.00 3.02 3.16 3.09 3.09 2.82 2.74 2.93 3.30 3.47 3.84
3.29 3.42 3.50 3.38 3.32 3.35 3.57 3.99 4.12 4.34 4.52 4.68 4.73 4.93 4.82 4.58 4.49 4.57 4.55 4.71 4.56 4.62 4.64 4.49 4.91 4.89 4.77 4.33 3.84 3.61 3.26 3.20 3.06 2.76 2.82 2.87 2.89 2.81 2.76 2.69 2.97 3.21 3.50
3.31 3.44 3.52 3.67 3.86 3.83 3.89 4.22 4.68 4.90 5.05 5.38 5.43 5.43 5.49 5.47 5.33 5.34 5.30 5.33 5.20 5.07 5.01 4.97 5.07 4.82 4.67 4.41 3.84 3.55 3.18 2.81 2.74 2.74 2.50 2.66 2.63 2.42 2.58 2.71 2.88 2.80 3.22
3.42 3.62 3.53 3.72 4.11 4.39 4.78 4.81 5.04 5.53 5.87 5.97 6.01 5.98 5.88 5.82 5.86 5.72 5.55 5.70 5.53 5.27 5.06 5.03 4.99 4.86 4.49 4.46 4.48 3.98 3.26 2.79 2.57 2.40 2.43 2.52 2.36 2.33 2.64 2.71 2.69 2.64 2.62
3.40 3.65 3.75 3.89 4.38 4.85 5.41 5.96 6.36 6.82 6.87 6.98 6.89 6.75 6.39 6.22 6.15 5.95 6.00 5.83 5.64 5.53 5.25 5.03 4.99 4.89 4.50 4.56 4.58 4.55 3.75 3.16 2.49 1.95 2.09 2.15 2.13 2.20 2.32 2.33 2.34 2.44 2.47
3.46 3.69 3.84 4.16 4.77 5.59 6.18 6.69 7.25 7.61 7.36 7.15 6.83 6.66 6.53 6.47 6.38 6.28 6.30 6.02 5.80 5.56 5.21 4.93 4.81 4.73 4.59 4.59 4.46 4.57 3.99 3.28 2.72 2.19 1.89 1.81 1.93 2.11 2.13 2.24 2.19 2.21 2.29
3.50 3.62 3.83 4.47 5.14 5.77 6.43 7.06 7.61 7.86 7.86 7.66 7.10 6.60 6.22 5.98 5.74 5.67 5.74 5.62 5.44 5.13 4.89 4.55 4.45 4.41 4.57 4.37 4.32 4.09 3.79 3.44 3.22 2.75 2.26 2.00 1.98 1.98 2.02 2.05 2.08 2.17 2.23
3.18 3.57 3.87 4.55 5.29 5.93 6.70 7.43 7.82 7.99 7.95 7.58 6.81 6.05 5.53 5.22 4.94 4.76 4.81 4.75 4.59 4.39 4.23 4.16 4.22 4.14 4.07 3.90 3.79 3.83 3.88 3.78 3.37 3.00 2.62 2.32 2.20 2.06 2.07 2.09 2.23 2.25 2.23
2.94 3.39 3.89 4.25 4.92 5.72 6.33 6.83 6.98 7.11 7.05 6.62 6.18 5.69 5.33 4.85 4.38 4.03 3.94 3.88 3.70 3.54 3.55 3.58 3.69 3.65 3.68 3.69 3.62 3.49 3.50 3.50 3.26 3.15 2.82 2.50 2.44 2.21 2.13 2.06 2.05 2.14 2.21